Farrell Flat Airport

Jump to: basic info | weather | frequencies | runways | comments

Related pages: nearby airports | nearby navaids | notams | map

Basic information (top)

Codes: YFFT
Location: lon -33.833302, lat 138.766998
Status: small_airport

Weather (top)

Current conditions for Adelaide International Airport 68nm (125km) S (rec'd 2014/10/31 17:14Z):

YPAD 311714Z 22021G31KT 9999 FEW015 SCT025 OVC030 14/10 Q1008 INTER 1714/1800 5000 SHRA BKN010

Airport forecast for Adelaide International Airport 68nm (125km) S (rec'd 2014/10/30 18:54Z):

TAF YPAD 301743Z 3018/3124 04010KT CAVOK 
     FM302200 01013KT CAVOK 
     FM310100 31017KT CAVOK 
     FM310400 24017KT 9999 -SHRA BKN080 
     FM311400 23017KT 9999 -SHRA SCT018 INTER 3106/3118 5000 SHRA SCT018 BKN020 
      RMK

Frequencies (top)

Verify before use: may be inaccurate or out of date.

CTAF: 122.4 MHz (CTAF)
MISC: 114.2 MHz (MISC)
MISC: 119.8 MHz (MISC)
MISC: 121.3 MHz (MISC)

Runways (top)

03/21: 1,443 ft (440 m) — grass — not lighted

14/32: 2,486 ft (758 m) — grass — not lighted

Latest comments (top)

No comments yet for Farrell Flat Airport

More... (top)

See also NOTAMs and nearby airports and navaids, or visit the Farrell Flat Airport page at the main OurAirports website..